Regional Weather Roundup
Issued by NWS

Home | Current Version | Previous Version | Graphics & Text | Print | Product List | Glossary On
Versions: 1 2 3 4 5 6 7 8 9 10 11 12 13 14 15 16 17 18 19 20 21 22 23 24 25 26 27 28 29 30 31 32 33 34 35 36 37 38 39 40 41 42 43 44 45 46 47 48 49 50
000
ASUS43 KFSD 171902
RWRSD

WEATHER ROUNDUP FOR SOUTH DAKOTA
NATIONAL WEATHER SERVICE SIOUX FALLS SD
100 PM CST WED JAN 17 2018

NOTE: "FAIR" INDICATES FEW OR NO CLOUDS BELOW 12,000 FEET WITH NO
SIGNIFICANT WEATHER AND/OR OBSTRUCTIONS TO VISIBILITY.


SDZ001>005-009-010-012>017-172000-
NORTHWEST AND NORTH CENTRAL SOUTH DAKOTA

CITY           SKY/WX    TMP DP  RH WIND       PRES   REMARKS
BUFFALO          N/A     34  22  61 W15       30.13F WCI  24
FAITH            N/A     37  24  59 W16       30.19F
MOBRIDGE       SUNNY     35  19  52 W8        30.12F WCI  29
$$

SDZ012>016-024>037-041>051-057-063-072>074-172000-
SOUTHWEST AND SOUTH CENTRAL SOUTH DAKOTA

CITY           SKY/WX    TMP DP  RH WIND       PRES   REMARKS
RAPID CTY ARPT SUNNY     45  28  51 N13       30.24F
PIERRE         SUNNY     38  19  46 W13       30.20F
CUSTER         SUNNY     44  17  33 CALM      30.23F
ELLSWORTH AFB  SUNNY     43  26  51 N14       30.23F
PHILIP         SUNNY     42  26  53 W12       30.24F
PINE RIDGE     SUNNY     36  17  46 SW8       30.28F
SPEARFISH        N/A     41  21  45 W10       30.25F
WINNER         FAIR      37  19  48 W12       30.23F
$$

SDZ004>011-016>023-039-040-172000-
NORTHEAST SOUTH DAKOTA

CITY           SKY/WX    TMP DP  RH WIND       PRES   REMARKS
ABERDEEN       SUNNY     31  17  56 S13       30.14F WCI  21
WATERTOWN      SUNNY     27  14  58 SW14      30.13F WCI  16
BROOKINGS      SUNNY     24  12  60 SW13      30.17F WCI  12
SISSETON         N/A     33  13  43 VRB6      30.07F WCI  28
$$

SDZ017-020-022-023-036>040-048>070-172000-
SOUTHEAST SOUTH DAKOTA

CITY           SKY/WX    TMP DP  RH WIND       PRES   REMARKS
SIOUX FALLS    SUNNY     24  12  60 SW13      30.23F WCI  12
HURON          SUNNY     29  15  56 S6        30.20F WCI  23
CHAMBERLAIN    SUNNY     34  19  54 W12       30.22F WCI  25
MITCHELL       SUNNY     29  15  56 SW10      30.24F WCI  20
YANKTON        SUNNY     31  16  54 S10       30.27F WCI  22
$$

ABBREVIATIONS USED IN REMARKS
   TC - TEMPERATURE IN CELSIUS
  WCI - WIND CHILL INDEX
   HX - HEAT INDEX
  VSB - VISIBILITY





USA.gov is the U.S. government's official web portal to all federal, state and local government web resources and services.